Flag for Russia Weather past 2 weeks in Kemerovo, Russia

Now
27 °F

Partly sunny.


Feels Like: 17 °F
Forecast: 21 / 26 °F
Wind: 10 mph from Southwest

Location: Kemerovo

Current Time: Mar 1, 2015 at 6:07:40 PM

Latest Report: Mar 1, 2015 at 5:30 PM


Visibility: N/A

Pressure: 30.60 "Hg

Humidity: 80%

Dew point: 21 °F

Location of KemerovoLocation

Historic Weather in Kemerovo — Graph

°F

Kemerovo temperature yesterday

Maximum temperature yesterday: 28 °F (at 12:00 PM)
Minimum temperature yesterday: 23 °F (at 12:00 AM)
Average temperature yesterday: 24 °F

Past Weeks' High & Low Weather Summary

 TemperatureHumidityPressure
High30 °F (Feb 25, 3:00 PM)100% (Feb 14, 5:00 PM)30.69 "Hg (Feb 14, 5:00 PM)
Low-22 °F (Feb 20, 5:00 AM)39% (Feb 21, 7:00 PM)29.71 "Hg (Feb 14, 5:00 PM)
Average12 °F89%30.16 "Hg
* Reported Feb 14 5:00 PM — Mar 1 5:00 PM, Kemerovo, Weather by CustomWeather, © 2015

Note: Actual official high and low records may vary slightly from our data, if they occured in-between our weather recording intervals... More about our weather records

Advertising

Kemerovo weather history for previous 24 hours

 ConditionsComfort  
Time TempWeatherWind HumidityBarometerVisibility
5:00 PM
Sun, Mar 1
27 °FPartly sunny.8 mph80%30.60 "HgN/A
4:30 PM27 °FPartly sunny.3 mph80%30.60 "HgN/A
4:00 PM27 °FPartly sunny.6 mph80%30.60 "HgN/A
3:30 PM27 °FPartly sunny.8 mph86%30.60 "HgN/A
3:00 PM27 °FPartly sunny.8 mph86%30.60 "HgN/A
2:30 PM27 °FPartly sunny.13 mph86%30.60 "HgN/A
2:00 PM27 °FPartly sunny.6 mph86%30.57 "HgN/A
1:30 PM27 °FPartly sunny.6 mph86%30.57 "HgN/A
1:00 PM27 °FPartly sunny.8 mph86%30.57 "HgN/A
12:30 PM25 °FBroken clouds.8 mph93%30.57 "HgN/A
12:00 PM25 °FMostly cloudy.8 mph93%30.54 "HgN/A
11:30 AM23 °FMore clouds than sun.8 mph100%30.54 "HgN/A
11:00 AM23 °FMore clouds than sun.8 mph100%30.54 "HgN/A
10:30 AM23 °FMore clouds than sun.6 mph100%30.51 "HgN/A
10:00 AM23 °FMore clouds than sun.6 mph100%30.51 "HgN/A
9:30 AM23 °FOvercast.6 mph100%30.51 "HgN/A
9:00 AM23 °FOvercast.6 mph100%30.51 "HgN/A
8:30 AM23 °FOvercast.6 mph100%30.48 "HgN/A
8:00 AM23 °FMostly cloudy.6 mph100%30.48 "HgN/A
7:30 AM23 °FMostly cloudy.6 mph100%30.45 "HgN/A
7:00 AM23 °FMostly cloudy.6 mph100%30.42 "HgN/A
6:30 AM21 °FOvercast.6 mph100%30.42 "HgN/A
6:00 AM21 °FOvercast.6 mph100%30.42 "HgN/A
5:30 AM23 °FMostly cloudy.6 mph100%30.39 "HgN/A
5:00 AM23 °FMostly cloudy.8 mph100%30.36 "HgN/A
4:30 AM25 °FMostly cloudy.8 mph100%30.36 "HgN/A
3:30 AM25 °FMostly cloudy.8 mph100%30.33 "HgN/A
3:00 AM25 °FMostly cloudy.8 mph100%30.30 "HgN/A
2:30 AM25 °FMostly cloudy.8 mph100%30.30 "HgN/A
2:00 AM25 °FMostly cloudy.8 mph100%30.30 "HgN/A
1:30 AM25 °FMostly cloudy.8 mph100%30.27 "HgN/A
1:00 AM25 °FSnow flurries. Mostly cloudy.13 mph100%30.27 "Hg2 mi
12:30 AM25 °FSnow flurries. Mostly cloudy.8 mph100%30.24 "Hg2 mi
12:00 AM25 °FSnow flurries. Mostly cloudy.10 mph100%30.24 "Hg2 mi
11:30 PM
Sat, Feb 28
25 °FSnow flurries. Mostly cloudy.10 mph100%30.21 "Hg3 mi
11:00 PM25 °FSnow flurries. Mostly cloudy.10 mph100%30.18 "Hg3 mi
10:30 PM25 °FSnow flurries. Mostly cloudy.8 mph100%30.18 "Hg2 mi
10:00 PM25 °FSnow flurries. Mostly cloudy.13 mph100%30.15 "Hg2 mi
9:30 PM23 °FSnow flurries. Mostly cloudy.10 mph100%30.12 "Hg2 mi
9:00 PM23 °FLight snow. Overcast.10 mph100%30.12 "Hg2 mi
8:30 PM23 °FLight snow. Low clouds.10 mph100%30.09 "Hg1 mi
8:00 PM23 °FLight snow. Low clouds.8 mph100%30.09 "Hg1 mi
7:30 PM23 °FLight snow. Low clouds.8 mph100%30.07 "Hg1 mi
7:00 PM23 °FLight snow. Low clouds.8 mph100%30.07 "Hg1 mi
6:30 PM23 °FLight snow. Low clouds.8 mph100%30.04 "Hg1 mi
6:00 PM23 °FLight snow. Low clouds.8 mph100%30.04 "Hg1 mi
Weather by CustomWeather, © 2015

See weather overviewHow to use our weather pages